Time,TemperatureF,DewpointF,PressureIn,WindDirection,WindDirectionDegrees,WindSpeedMPH,WindSpeedGustMPH,Humidity,HourlyPrecipIn,Conditions,Clouds,dailyrainin,SoftwareType,DateUTC
2013-03-07 00:06:00,32.9,28.0,30.34,ENE,67,0.0,0.0,81,0.00,,,0.00,weatherlink.com 1.10,2013-03-07 06:06:00,
2013-03-07 00:21:00,32.0,27.0,30.35,ENE,66,0.0,0.0,81,0.00,,,0.00,weatherlink.com 1.10,2013-03-07 06:21:00,
2013-03-07 00:36:00,32.0,27.0,30.35,ENE,66,0.0,0.0,83,0.00,,,0.00,weatherlink.com 1.10,2013-03-07 06:36:00,
2013-03-07 00:51:00,32.5,28.0,30.34,ENE,66,0.0,0.0,83,0.00,,,0.00,weatherlink.com 1.10,2013-03-07 06:51:00,
2013-03-07 01:06:00,33.0,28.0,30.34,ENE,66,0.0,0.0,82,0.00,,,0.00,weatherlink.com 1.10,2013-03-07 07:06:00,
2013-03-07 01:21:00,33.1,28.0,30.35,ENE,67,0.0,0.0,82,0.00,,,0.00,weatherlink.com 1.10,2013-03-07 07:21:00,
2013-03-07 01:36:00,33.3,28.0,30.34,ENE,66,0.0,0.0,82,0.00,,,0.00,weatherlink.com 1.10,2013-03-07 07:36:00,
2013-03-07 02:06:00,33.4,28.0,30.35,ENE,66,0.0,0.0,81,0.00,,,0.00,weatherlink.com 1.10,2013-03-07 08:06:00,
2013-03-07 02:21:00,33.3,28.0,30.35,ENE,66,0.0,0.0,82,0.00,,,0.00,weatherlink.com 1.10,2013-03-07 08:21:00,
2013-03-07 02:36:00,33.2,28.0,30.35,ENE,66,0.0,0.0,82,0.00,,,0.00,weatherlink.com 1.10,2013-03-07 08:36:00,
2013-03-07 02:51:00,33.2,29.0,30.36,ENE,67,0.0,0.0,83,0.00,,,0.00,weatherlink.com 1.10,2013-03-07 08:51:00,
2013-03-07 03:06:00,33.2,29.0,30.36,ENE,67,0.0,0.0,83,0.00,,,0.00,weatherlink.com 1.10,2013-03-07 09:06:00,
2013-03-07 03:21:00,33.1,29.0,30.35,ENE,66,0.0,0.0,84,0.00,,,0.00,weatherlink.com 1.10,2013-03-07 09:21:00,
2013-03-07 03:36:00,33.4,29.0,30.34,ENE,66,0.0,0.0,84,0.00,,,0.00,weatherlink.com 1.10,2013-03-07 09:36:00,
2013-03-07 03:51:00,33.4,29.0,30.36,ENE,66,0.0,0.0,83,0.00,,,0.00,weatherlink.com 1.10,2013-03-07 09:51:00,
2013-03-07 04:06:00,33.1,29.0,30.36,ENE,66,0.0,0.0,83,0.00,,,0.00,weatherlink.com 1.10,2013-03-07 10:06:00,
2013-03-07 04:21:00,33.2,29.0,30.36,ENE,66,0.0,0.0,84,0.00,,,0.00,weatherlink.com 1.10,2013-03-07 10:21:00,
2013-03-07 04:36:00,32.7,28.0,30.37,ENE,66,0.0,0.0,84,0.00,,,0.00,weatherlink.com 1.10,2013-03-07 10:36:00,
2013-03-07 04:51:00,32.4,28.0,30.37,ENE,75,1.0,1.0,85,0.00,,,0.00,weatherlink.com 1.10,2013-03-07 10:51:00,
2013-03-07 05:06:00,33.1,28.0,30.38,ESE,104,0.0,1.0,82,0.00,,,0.00,weatherlink.com 1.10,2013-03-07 11:06:00,
2013-03-07 05:21:00,33.4,28.0,30.38,East,82,0.0,3.0,81,0.00,,,0.00,weatherlink.com 1.10,2013-03-07 11:21:00,
2013-03-07 05:36:00,33.3,28.0,30.39,East,82,0.0,1.0,82,0.00,,,0.00,weatherlink.com 1.10,2013-03-07 11:36:00,
2013-03-07 05:51:00,33.2,28.0,30.39,ENE,70,0.0,2.0,81,0.00,,,0.00,weatherlink.com 1.10,2013-03-07 11:51:00,
2013-03-07 06:07:00,33.2,28.0,30.40,ENE,65,1.0,2.0,81,0.00,,,0.00,weatherlink.com 1.10,2013-03-07 12:07:00,
2013-03-07 06:22:00,33.2,28.0,30.40,ENE,70,0.0,2.0,81,0.00,,,0.00,weatherlink.com 1.10,2013-03-07 12:22:00,
2013-03-07 06:52:00,33.4,28.0,30.41,ENE,65,0.0,1.0,80,0.00,,,0.00,weatherlink.com 1.10,2013-03-07 12:52:00,
2013-03-07 07:07:00,33.6,28.0,30.41,East,84,0.0,1.0,79,0.00,,,0.00,weatherlink.com 1.10,2013-03-07 13:07:00,
2013-03-07 07:22:00,33.9,28.0,30.42,ENE,70,0.0,4.0,79,0.00,,,0.00,weatherlink.com 1.10,2013-03-07 13:22:00,
2013-03-07 07:37:00,34.3,28.0,30.42,ENE,77,1.0,2.0,78,0.00,,,0.00,weatherlink.com 1.10,2013-03-07 13:37:00,
2013-03-07 07:52:00,34.8,29.0,30.42,South,169,0.0,2.0,78,0.00,,,0.00,weatherlink.com 1.10,2013-03-07 13:52:00,
2013-03-07 08:07:00,35.3,28.0,30.42,ENE,65,2.0,3.0,76,0.00,,,0.00,weatherlink.com 1.10,2013-03-07 14:07:00,
2013-03-07 08:22:00,35.9,29.0,30.43,East,79,1.0,3.0,75,0.00,,,0.00,weatherlink.com 1.10,2013-03-07 14:22:00,
2013-03-07 08:37:00,36.4,29.0,30.43,ENE,65,1.0,2.0,75,0.00,,,0.00,weatherlink.com 1.10,2013-03-07 14:37:00,
2013-03-07 08:52:00,37.5,29.0,30.43,ENE,58,2.0,2.0,72,0.00,,,0.00,weatherlink.com 1.10,2013-03-07 14:52:00,
2013-03-07 09:08:00,38.8,30.0,30.43,WSW,256,0.0,2.0,70,0.00,,,0.00,weatherlink.com 1.10,2013-03-07 15:08:00,
2013-03-07 09:23:00,39.8,30.0,30.43,NNE,33,2.0,4.0,68,0.00,,,0.00,weatherlink.com 1.10,2013-03-07 15:23:00,
2013-03-07 09:38:00,40.8,31.0,30.42,SSE,151,0.0,3.0,68,0.00,,,0.00,weatherlink.com 1.10,2013-03-07 15:38:00,
2013-03-07 09:53:00,41.2,30.0,30.42,SSE,149,0.0,2.0,65,0.00,,,0.00,weatherlink.com 1.10,2013-03-07 15:53:00,
2013-03-07 10:23:00,42.2,31.0,30.44,SSW,195,0.0,2.0,64,0.00,,,0.00,weatherlink.com 1.10,2013-03-07 16:23:00,
2013-03-07 10:38:00,43.7,31.0,30.44,NNW,342,0.0,3.0,61,0.00,,,0.00,weatherlink.com 1.10,2013-03-07 16:38:00,
2013-03-07 10:53:00,43.9,30.0,30.44,NNE,33,1.0,5.0,59,0.00,,,0.00,weatherlink.com 1.10,2013-03-07 16:53:00,
2013-03-07 11:08:00,44.9,31.0,30.43,NNW,345,0.0,3.0,58,0.00,,,0.00,weatherlink.com 1.10,2013-03-07 17:08:00,
2013-03-07 11:23:00,45.9,31.0,30.42,WNW,294,0.0,3.0,56,0.00,,,0.00,weatherlink.com 1.10,2013-03-07 17:23:00,
2013-03-07 11:38:00,47.3,32.0,30.42,NNW,333,0.0,3.0,55,0.00,,,0.00,weatherlink.com 1.10,2013-03-07 17:38:00,
2013-03-07 11:53:00,48.5,31.0,30.41,SSE,150,1.0,3.0,52,0.00,,,0.00,weatherlink.com 1.10,2013-03-07 17:53:00,
2013-03-07 12:08:00,49.5,32.0,30.41,NE,39,2.0,5.0,52,0.00,,,0.00,weatherlink.com 1.10,2013-03-07 18:08:00,
2013-03-07 12:23:00,50.1,32.0,30.40,SW,232,1.0,3.0,51,0.00,,,0.00,weatherlink.com 1.10,2013-03-07 18:23:00,
2013-03-07 12:38:00,51.3,32.0,30.39,SSW,200,2.0,3.0,48,0.00,,,0.00,weatherlink.com 1.10,2013-03-07 18:38:00,
2013-03-07 12:53:00,51.9,32.0,30.38,WSW,238,1.0,5.0,46,0.00,,,0.00,weatherlink.com 1.10,2013-03-07 18:53:00,
2013-03-07 13:08:00,52.2,33.0,30.38,NE,41,0.0,4.0,48,0.00,,,0.00,weatherlink.com 1.10,2013-03-07 19:08:00,
2013-03-07 13:23:00,53.3,32.0,30.37,ENE,58,2.0,3.0,44,0.00,,,0.00,weatherlink.com 1.10,2013-03-07 19:23:00,
2013-03-07 13:38:00,52.8,31.0,30.36,SSW,194,0.0,3.0,44,0.00,,,0.00,weatherlink.com 1.10,2013-03-07 19:38:00,
2013-03-07 13:53:00,53.6,31.0,30.35,ENE,78,2.0,3.0,42,0.00,,,0.00,weatherlink.com 1.10,2013-03-07 19:53:00,
2013-03-07 14:08:00,54.3,31.0,30.34,ENE,63,1.0,4.0,42,0.00,,,0.00,weatherlink.com 1.10,2013-03-07 20:08:00,
2013-03-07 14:23:00,55.1,32.0,30.34,NNW,333,1.0,4.0,42,0.00,,,0.00,weatherlink.com 1.10,2013-03-07 20:23:00,
2013-03-07 14:38:00,54.2,31.0,30.34,East,86,2.0,3.0,41,0.00,,,0.00,weatherlink.com 1.10,2013-03-07 20:38:00,
2013-03-07 14:53:00,55.1,31.0,30.34,SSE,156,2.0,4.0,40,0.00,,,0.00,weatherlink.com 1.10,2013-03-07 20:53:00,
2013-03-07 15:08:00,55.1,32.0,30.34,North,4,1.0,4.0,42,0.00,,,0.00,weatherlink.com 1.10,2013-03-07 21:08:00,
2013-03-07 15:24:00,55.2,32.0,30.34,ESE,105,0.0,5.0,41,0.00,,,0.00,weatherlink.com 1.10,2013-03-07 21:24:00,
2013-03-07 15:39:00,55.6,32.0,30.33,NNW,340,1.0,3.0,41,0.00,,,0.00,weatherlink.com 1.10,2013-03-07 21:39:00,
2013-03-07 15:54:00,55.8,32.0,30.33,ENE,61,3.0,3.0,40,0.00,,,0.00,weatherlink.com 1.10,2013-03-07 21:54:00,
2013-03-07 16:09:00,54.8,31.0,30.33,East,85,1.0,3.0,41,0.00,,,0.00,weatherlink.com 1.10,2013-03-07 22:09:00,
2013-03-07 16:24:00,54.6,31.0,30.33,ENE,77,1.0,4.0,41,0.00,,,0.00,weatherlink.com 1.10,2013-03-07 22:24:00,
2013-03-07 16:39:00,54.7,31.0,30.32,NE,47,0.0,3.0,41,0.00,,,0.00,weatherlink.com 1.10,2013-03-07 22:39:00,
2013-03-07 16:54:00,54.0,32.0,30.32,East,86,0.0,1.0,43,0.00,,,0.00,weatherlink.com 1.10,2013-03-07 22:54:00,
2013-03-07 17:09:00,53.2,32.0,30.32,ENE,60,0.0,2.0,44,0.00,,,0.00,weatherlink.com 1.10,2013-03-07 23:09:00,
2013-03-07 17:24:00,52.3,32.0,30.32,NE,53,0.0,3.0,46,0.00,,,0.00,weatherlink.com 1.10,2013-03-07 23:24:00,
2013-03-07 17:39:00,51.4,32.0,30.32,NE,36,1.0,1.0,48,0.00,,,0.00,weatherlink.com 1.10,2013-03-07 23:39:00,
2013-03-07 17:54:00,50.3,32.0,30.32,East,79,1.0,3.0,50,0.00,,,0.00,weatherlink.com 1.10,2013-03-07 23:54:00,
2013-03-07 18:09:00,49.3,32.0,30.32,East,79,0.0,2.0,52,0.00,,,0.00,weatherlink.com 1.10,2013-03-08 00:09:00,
2013-03-07 18:24:00,48.6,32.0,30.32,ENE,77,1.0,4.0,54,0.00,,,0.00,weatherlink.com 1.10,2013-03-08 00:24:00,
2013-03-07 18:39:00,47.7,32.0,30.32,ENE,64,0.0,2.0,56,0.00,,,0.00,weatherlink.com 1.10,2013-03-08 00:39:00,
2013-03-07 18:54:00,46.9,33.0,30.32,ENE,67,0.0,1.0,58,0.00,,,0.00,weatherlink.com 1.10,2013-03-08 00:54:00,
2013-03-07 19:09:00,46.1,32.0,30.32,ENE,65,0.0,0.0,59,0.00,,,0.00,weatherlink.com 1.10,2013-03-08 01:09:00,
2013-03-07 19:24:00,45.3,32.0,30.33,ENE,65,0.0,0.0,61,0.00,,,0.00,weatherlink.com 1.10,2013-03-08 01:24:00,
2013-03-07 19:39:00,45.1,33.0,30.33,ENE,74,0.0,0.0,62,0.00,,,0.00,weatherlink.com 1.10,2013-03-08 01:39:00,
2013-03-07 19:54:00,44.9,32.0,30.32,East,86,0.0,0.0,62,0.00,,,0.00,weatherlink.com 1.10,2013-03-08 01:54:00,
2013-03-07 20:09:00,44.5,32.0,30.32,East,79,0.0,0.0,63,0.00,,,0.00,weatherlink.com 1.10,2013-03-08 02:09:00,
2013-03-07 20:24:00,44.1,32.0,30.32,ENE,68,2.0,2.0,63,0.00,,,0.00,weatherlink.com 1.10,2013-03-08 02:24:00,
2013-03-07 20:39:00,43.7,32.0,30.32,ENE,77,0.0,1.0,64,0.00,,,0.00,weatherlink.com 1.10,2013-03-08 02:39:00,
2013-03-07 20:54:00,43.4,32.0,30.32,East,84,0.0,2.0,64,0.00,,,0.00,weatherlink.com 1.10,2013-03-08 02:54:00,
2013-03-07 21:09:00,42.8,32.0,30.33,East,84,0.0,1.0,65,0.00,,,0.00,weatherlink.com 1.10,2013-03-08 03:09:00,
2013-03-07 21:24:00,42.2,31.0,30.33,East,84,0.0,0.0,66,0.00,,,0.00,weatherlink.com 1.10,2013-03-08 03:24:00,
2013-03-07 21:39:00,41.8,32.0,30.33,East,85,0.0,0.0,67,0.00,,,0.00,weatherlink.com 1.10,2013-03-08 03:39:00,
2013-03-07 21:54:00,41.3,31.0,30.33,East,84,0.0,0.0,68,0.00,,,0.00,weatherlink.com 1.10,2013-03-08 03:54:00,
2013-03-07 22:09:00,40.6,32.0,30.33,East,84,0.0,0.0,70,0.00,,,0.00,weatherlink.com 1.10,2013-03-08 04:09:00,
2013-03-07 22:24:00,40.0,31.0,30.34,East,85,0.0,0.0,70,0.00,,,0.00,weatherlink.com 1.10,2013-03-08 04:24:00,
2013-03-07 22:39:00,39.2,31.0,30.34,East,84,0.0,0.0,73,0.00,,,0.00,weatherlink.com 1.10,2013-03-08 04:39:00,
2013-03-07 22:54:00,38.6,31.0,30.34,East,84,0.0,0.0,74,0.00,,,0.00,weatherlink.com 1.10,2013-03-08 04:54:00,
2013-03-07 23:09:00,38.3,31.0,30.34,East,84,0.0,0.0,74,0.00,,,0.00,weatherlink.com 1.10,2013-03-08 05:09:00,
2013-03-07 23:24:00,38.0,31.0,30.34,East,84,0.0,0.0,75,0.00,,,0.00,weatherlink.com 1.10,2013-03-08 05:24:00,
2013-03-07 23:39:00,37.5,31.0,30.33,East,84,0.0,0.0,76,0.00,,,0.00,weatherlink.com 1.10,2013-03-08 05:39:00,
2013-03-07 23:54:00,37.1,31.0,30.33,East,84,0.0,0.0,77,0.00,,,0.00,weatherlink.com 1.10,2013-03-08 05:54:00,